{"data":{"norad_id":46043,"epoch":"2026-09-19T14:13:28.799616Z","epoch_age_seconds":96635,"freshness":"FRESH","line1":"1 46043U 20055S   26262.59269444  .00001048  00000+0  45506-4 0  9996","line2":"2 46043  53.1603 304.3299 0001237  74.8893 285.2246 15.31709331338599","mean_motion":15.31709331,"eccentricity":0.0001237,"inclination_deg":53.1603,"raan_deg":304.3299,"arg_perigee_deg":74.8893,"mean_anomaly_deg":285.2246,"bstar":4.5506e-5,"rev_number":33859,"period_min":94.012615243381,"perigee_km":469.86497749782,"apogee_km":471.55938278498,"semimajor_km":6848.8491801414,"source":"CELESTRAK","updated_at":"2026-09-20T09:00:38.461094Z"}}